Location: Kershaw
(34.5481°N, 80.5823°W)
Time: 15:37:50
(UTC+00:00)

Vanguard 1 Rocket - Pass Details

Date: 01 October 2022
Orbit: 650 x 4225 km, 34.3° (Epoch: 08 December)

Event Time Altitude Azimuth Distance (km) Brightness Sun altitude
Rises 00:10:07 0° 229° (SW) 8,410 13.0 -13.7°
Reaches altitude 10° 00:16:29 10° 226° (SW) 7,191 12.5 -15.0°
Maximum altitude 00:38:20 57° 155° (SSE) 3,172 9.9 -19.4°
Enters shadow 00:46:25 28° 91° (E) 3,455 9.7 -21.1°
Drops below altitude 10° 00:50:17 10° 81° (E) 4,203 - -21.9°
Sets 00:52:54 0° 77° (ENE) 4,852 - -22.4°
